Het weer levert geen direct gevaar op.    Er zijn geen waarschuwingen afgegeven.


Onweer radar Meer informatie blitzortung!


Regen radar Meer informatie rain snow radar


Bezoek onze andere website:

Template documentation
and downloads

And another site



Select another period ( hide this area )

Eenheden Periode Custom range Directly to
Metrisch Engels Beide
Dagelijkse Wekelijkse Maandelijkse Jaarlijkse
use both date-selectors for a custom range
previous Dag
With this date

WeatherUnderground graphs for this period ( click here )


Dagelijkse Samenvatting Woensdag 20 juni 2018
Tijd Temp. ( °C ) Dew pt. ( °C ) Wind ( km/h ) van Windvlaag ( km/h ) Luchtdruk ( hPa ) Humid.( % ) Rainrate ( cm )
Hoog19,6 15,8 37,0 ZW ( 1553/3043 ) 25,9 1022,6 93 -
Gemiddeld17,0 15,3 16,9 ZW #94/180 10,7 1020,8 89 -
Laag16,3 14,9 3,7   2,4 1019,2 76 -
Dagelijkse Tabular details for Woensdag 20 juni 2018
Tijd Temp. ( °C ) Dew pt. ( °C ) Wind ( km/h ) van Windvlaag ( km/h ) Luchtdruk ( hPa ) Humid.( % ) Rainrate ( cm )
00:04 17,6 15,0 18,5 ZW 10,0 1022,6 85 -
00:09 17,6 15,1 14,8 ZZW 8,7 1022,6 85 -
00:14 17,7 15,1 13,0 ZW 8,0 1022,5 85 -
00:19 17,7 15,1 18,5 Zuiden 7,4 1022,5 85 -
00:24 17,7 15,1 11,1 ZW 10,6 1022,4 85 -
00:29 17,7 15,1 14,8 ZW 7,4 1022,4 85 -
00:34 17,7 15,1 13,0 Zuiden 7,9 1022,3 85 -
00:39 17,7 15,1 11,1 ZW 7,9 1022,2 85 -
00:44 17,6 15,1 9,3 Westen 3,9 1022,2 85 -
00:49 17,6 15,1 14,5 WZW 7,7 1022,2 85 -
00:54 17,6 15,1 16,7 ZO 5,8 1022,0 85 -
00:59 17,6 15,2 9,3 ZW 7,9 1022,2 86 -
01:04 17,5 14,9 11,1 ZZW 9,0 1022,1 85 -
01:09 17,5 15,1 9,7 ZW 8,8 1022,2 86 -
01:14 17,4 15,1 7,4 WZW 5,8 1022,1 86 -
01:19 17,4 15,0 16,7 ZZW 7,4 1022,1 86 -
01:24 17,4 15,0 11,1 ZW 5,5 1022,1 86 -
01:29 17,4 15,0 14,5 ZZW 9,3 1022,1 86 -
01:34 17,3 15,2 13,0 ZW 8,2 1022,0 87 -
01:39 17,3 15,2 9,7 ZW 7,7 1022,1 87 -
01:44 17,3 15,1 6,4 ZW 5,1 1021,9 87 -
01:49 17,3 15,1 14,8 ZW 9,8 1022,0 87 -
01:54 17,2 15,1 11,1 ZW 7,6 1022,0 87 -
01:59 17,2 15,1 7,4 ZW 5,8 1022,0 87 -
02:04 17,2 15,2 11,1 ZZO 7,4 1021,9 88 -
02:09 17,2 15,2 7,4 ZW 5,3 1021,9 88 -
02:14 17,1 15,1 18,5 ZZW 7,2 1021,8 88 -
02:19 17,1 15,1 11,1 ZW 5,1 1021,7 88 -
02:24 17,1 15,2 11,1 Zuiden 8,2 1021,7 89 -
02:29 17,1 15,2 11,1 Westen 5,3 1021,7 89 -
02:34 17,0 15,2 9,3 ZZW 5,0 1021,6 89 -
02:39 17,0 15,2 9,3 ZW 2,4 1021,6 89 -
02:44 16,9 15,1 3,7 ZW 3,2 1021,6 89 -
02:49 16,8 15,0 13,0 ZW 5,8 1021,5 89 -
02:54 16,8 14,9 5,6 ZW 3,4 1021,3 89 -
02:59 16,7 14,9 11,3 ZW 6,1 1021,4 89 -
03:04 16,7 15,0 13,0 ZW 6,0 1021,4 90 -
03:09 16,6 14,9 5,6 ZW 3,4 1021,3 90 -
03:14 16,6 14,9 9,3 ZW 3,9 1021,3 90 -
03:19 16,6 14,9 11,1 ZZW 5,8 1021,4 90 -
03:24 16,5 15,0 8,0 ZZW 5,0 1021,3 91 -
03:29 16,5 15,0 11,1 ZW 5,6 1021,3 91 -
03:34 16,5 15,0 11,1 ZZW 7,7 1021,2 91 -
03:39 16,5 15,0 11,1 ZZW 9,5 1021,1 91 -
03:44 16,5 15,0 7,4 ZW 3,9 1021,2 91 -
03:49 16,5 15,0 11,3 ZZW 7,2 1021,1 91 -
03:54 16,4 14,9 6,4 ZZW 4,8 1021,1 91 -
03:59 16,4 14,9 9,7 WZW 6,1 1021,0 91 -
04:04 16,4 15,1 9,7 ZW 7,4 1021,0 92 -
04:09 16,4 15,1 9,3 ZW 5,0 1021,0 92 -
04:14 16,4 15,1 9,7 ZW 6,0 1021,1 92 -
04:19 16,4 15,1 14,8 ZW 4,3 1021,0 92 -
04:24 16,4 15,1 13,0 ZW 5,1 1021,0 92 -
04:29 16,4 15,1 7,4 ZZW 5,6 1021,0 92 -
04:34 16,4 15,2 9,3 ZW 6,0 1021,0 92 -
04:39 16,4 15,2 12,9 ZW 6,8 1021,0 92 -
04:44 16,4 15,2 9,3 Zuiden 3,5 1020,9 92 -
04:49 16,4 15,2 9,3 ZZW 5,6 1020,9 92 -
04:54 16,4 15,2 13,0 ZZW 6,6 1020,9 92 -
04:59 16,4 15,2 9,3 ZZW 4,8 1020,9 92 -
05:04 16,4 15,2 9,3 ZW 8,7 1020,9 92 -
05:09 16,4 15,2 18,5 ZZW 8,0 1020,9 92 -
05:14 16,4 15,2 7,4 Zuiden 6,6 1020,9 92 -
05:19 16,4 15,2 5,6 ZZO 6,0 1020,9 92 -
05:24 16,4 15,2 8,0 ZZW 3,4 1020,9 92 -
05:29 16,4 15,2 8,0 ZW 6,4 1020,9 92 -
05:34 16,4 15,2 11,1 ZW 8,0 1020,8 92 -
05:39 16,4 15,2 18,5 ZW 7,1 1020,7 92 -
05:44 16,4 15,2 14,8 ZW 8,4 1020,8 92 -
05:49 16,4 15,2 11,1 ZZW 7,1 1020,8 92 -
05:54 16,5 15,2 18,5 WZW 11,7 1020,8 92 -
05:59 16,5 15,2 13,0 ZW 8,2 1020,8 92 -
06:04 16,6 15,3 9,3 ZW 8,7 1020,8 92 -
06:09 16,5 15,2 16,1 ZW 8,7 1020,7 92 -
06:14 16,5 15,2 11,1 ZW 8,5 1020,7 92 -
06:19 16,5 15,2 18,5 ZW 14,0 1020,8 92 -
06:24 16,4 15,1 14,8 WZW 14,5 1020,8 92 -
06:29 16,4 15,3 14,8 ZW 9,7 1020,8 93 -
06:34 16,4 15,3 18,5 ZZW 13,7 1020,8 93 -
06:39 16,3 15,2 17,7 ZZW 15,8 1020,8 93 -
06:44 16,3 15,2 20,4 WZW 10,1 1020,7 93 -
06:49 16,3 15,2 18,5 ZW 10,5 1020,7 93 -
06:54 16,3 15,2 16,7 ZZW 9,7 1020,6 93 -
06:59 16,3 15,2 18,5 ZW 9,3 1020,7 93 -
07:04 16,3 15,2 22,2 ZZW 16,9 1020,7 93 -
07:09 16,3 15,2 20,4 ZW 11,6 1020,7 93 -
07:14 16,3 15,2 14,8 WZW 9,0 1020,6 93 -
07:19 16,3 15,2 14,8 ZZW 12,6 1020,5 93 -
07:24 16,3 15,2 11,3 ZW 8,4 1020,6 93 -
07:29 16,3 15,2 18,5 ZW 11,3 1020,5 93 -
07:34 16,3 15,2 14,8 ZW 8,0 1020,5 93 -
07:39 16,4 15,3 12,9 Westen 6,3 1020,6 93 -
07:44 16,3 15,2 18,5 WZW 10,1 1020,5 93 -
07:49 16,3 15,2 16,7 ZW 8,4 1020,6 93 -
07:54 16,4 15,3 13,0 WZW 11,6 1020,5 93 -
07:59 16,4 15,3 19,3 ZW 9,8 1020,6 93 -
08:04 16,4 15,3 16,7 ZW 11,4 1020,6 93 -
08:09 16,4 15,3 25,9 ZW 14,0 1020,6 93 -
08:14 16,4 15,3 20,4 ZW 7,4 1020,6 93 -
08:19 16,5 15,4 16,7 ZW 12,4 1020,6 93 -
08:24 16,5 15,4 18,5 ZZW 8,2 1020,6 93 -
08:29 16,6 15,4 18,5 WZW 10,6 1020,7 93 -
08:34 16,6 15,4 14,5 ZZW 13,7 1020,6 93 -
08:39 16,6 15,4 25,9 WZW 12,2 1020,6 93 -
08:44 16,6 15,4 20,4 ZZW 15,4 1020,6 93 -
08:49 16,5 15,4 16,7 ZW 8,8 1020,6 93 -
08:54 16,6 15,4 31,5 ZZW 15,3 1020,7 93 -
08:59 16,6 15,5 14,8 ZW 15,8 1020,8 93 -
09:04 16,6 15,4 22,2 ZZW 11,7 1020,7 93 -
09:09 16,6 15,5 14,5 ZW 12,7 1020,7 93 -
09:14 16,7 15,6 13,0 WZW 7,2 1020,7 93 -
09:19 16,7 15,6 16,7 ZZW 11,1 1020,7 93 -
09:24 16,7 15,6 20,4 WZW 14,3 1020,7 93 -
09:29 16,7 15,6 13,0 ZW 11,4 1020,7 93 -
09:34 16,7 15,3 18,5 Westen 11,9 1020,8 92 -
09:39 16,7 15,4 18,5 ZW 12,1 1020,9 92 -
09:44 16,7 15,6 9,3 ZW 7,4 1020,8 93 -
09:49 16,7 15,4 18,5 ZW 15,4 1020,8 92 -
09:54 16,7 15,3 24,1 WZW 18,0 1020,7 92 -
09:59 16,7 15,3 22,2 WZW 9,8 1020,7 92 -
10:04 16,7 15,3 18,5 ZW 13,7 1020,6 92 -
10:09 16,7 15,3 14,8 WZW 13,0 1020,6 92 -
10:14 16,7 15,3 18,5 Zuiden 17,1 1020,5 92 -
10:19 16,6 15,3 16,7 WZW 8,8 1020,5 92 -
10:24 16,6 15,3 18,5 Westen 9,8 1020,5 92 -
10:29 16,6 15,3 14,8 WZW 11,6 1020,5 92 -
10:34 16,6 15,3 13,0 ZW 10,0 1020,4 92 -
10:39 16,6 15,3 22,2 ZW 15,4 1020,4 92 -
10:44 16,6 15,3 25,9 WZW 7,9 1020,3 92 -
10:49 16,6 15,3 20,4 ZW 10,1 1020,4 92 -
10:54 16,6 15,3 22,2 ZZO 12,4 1020,4 92 -
10:59 16,6 15,3 22,2 ZZW 13,8 1020,4 92 -
11:04 16,6 15,3 16,7 WZW 9,8 1020,4 92 -
11:09 16,7 15,4 24,1 WZW 13,0 1020,4 92 -
11:14 16,7 15,4 18,5 WZW 10,3 1020,4 92 -
11:19 16,8 15,3 20,9 ZW 17,4 1020,5 91 -
11:24 16,8 15,3 25,9 ZW 13,2 1020,6 91 -
11:29 16,8 15,3 22,2 ZW 10,0 1020,5 91 -
11:34 16,8 15,3 27,8 Zuiden 15,1 1020,5 91 -
11:39 16,8 15,3 27,4 ZW 16,6 1020,5 91 -
11:44 16,8 15,3 18,5 ZW 12,9 1020,6 91 -
11:49 16,9 15,4 20,4 ZW 16,4 1020,6 91 -
11:54 16,9 15,4 24,1 ZW 23,8 1020,7 91 -
11:59 16,9 15,4 22,2 ZZW 14,8 1020,7 91 -
12:04 16,9 15,3 31,5 ZW 17,1 1020,7 90 -
12:09 16,9 15,3 18,5 ZZW 17,2 1020,7 90 -
12:14 17,0 15,3 22,2 ZW 18,0 1020,6 90 -
12:19 17,0 15,3 18,5 ZZW 10,3 1020,5 90 -
12:24 17,1 15,4 18,5 ZW 9,3 1020,5 90 -
12:29 17,2 15,5 27,4 WZW 20,0 1020,5 90 -
12:34 17,2 15,3 25,9 ZW 18,0 1020,5 89 -
12:39 17,2 15,3 22,2 ZW 14,8 1020,4 89 -
12:44 17,2 15,4 27,8 ZW 14,3 1020,4 89 -
12:49 17,4 15,6 25,7 ZW 14,8 1020,4 89 -
12:54 17,5 15,5 22,5 Westen 14,8 1020,3 88 -
12:59 17,6 15,4 18,5 Westen 10,6 1020,3 87 -
13:04 17,7 15,6 22,2 WZW 19,5 1020,3 87 -
13:09 17,8 15,7 22,5 WZW 17,4 1020,2 87 -
13:14 17,9 15,6 27,8 ZW 15,4 1020,0 86 -
13:19 18,2 15,6 25,9 Zuiden 11,6 1019,9 85 -
13:24 18,4 15,8 22,2 ZW 12,6 1019,9 85 -
13:29 18,6 15,7 18,5 ZW 11,3 1019,9 83 -
13:34 18,6 15,7 29,6 ZW 17,7 1019,9 83 -
13:39 18,6 15,5 31,5 ZZW 16,4 1019,8 82 -
13:44 18,7 15,8 27,4 ZW 16,1 1019,7 83 -
13:49 18,9 15,7 22,2 ZZW 13,7 1019,6 82 -
13:54 18,9 15,6 22,2 ZW 20,9 1019,8 81 -
13:59 18,8 15,7 22,2 ZW 17,9 1019,8 82 -
14:04 18,8 15,7 31,5 ZZW 15,3 1019,6 82 -
14:09 18,7 15,6 24,1 WZW 11,9 1019,6 82 -
14:14 18,8 15,7 18,5 ZW 12,4 1019,6 82 -
14:19 19,0 15,8 22,2 Zuiden 16,7 1019,5 82 -
14:24 19,1 15,5 24,1 WZW 19,8 1019,5 80 -
14:29 18,9 15,6 27,8 ZW 17,5 1019,4 81 -
14:34 18,9 15,6 18,5 ZW 12,9 1019,4 81 -
14:39 19,2 15,6 27,8 ZW 24,1 1019,4 80 -
14:44 19,3 15,6 31,5 ZW 25,9 1019,4 79 -
14:49 19,3 15,3 31,5 WZW 15,0 1019,3 78 -
14:54 19,5 15,3 29,6 WZW 20,3 1019,4 77 -
14:59 19,6 15,3 37,0 ZW 21,4 1019,2 76 -
Dagelijkse Samenvatting Woensdag 20 juni 2018
Tijd Temp. ( °C ) Dew pt. ( °C ) Wind ( km/h ) van Windvlaag ( km/h ) Luchtdruk ( hPa ) Humid.( % ) Rainrate ( cm )
Hoog19,6 15,8 37,0 ZW ( 1553/3043 ) 25,9 1022,6 93 -
Gemiddeld17,0 15,3 16,9 ZW #94/180 10,7 1020,8 89 -
Laag16,3 14,9 3,7   2,4 1019,2 76 -
Dagelijkse Tabular details for Woensdag 20 juni 2018
Tijd Temp. ( °C ) Dew pt. ( °C ) Wind ( km/h ) van Windvlaag ( km/h ) Luchtdruk ( hPa ) Humid.( % ) Rainrate ( cm )
00:04 17,6 15,0 18,5 ZW 10,0 1022,6 85 -
00:09 17,6 15,1 14,8 ZZW 8,7 1022,6 85 -
00:14 17,7 15,1 13,0 ZW 8,0 1022,5 85 -
00:19 17,7 15,1 18,5 Zuiden 7,4 1022,5 85 -
00:24 17,7 15,1 11,1 ZW 10,6 1022,4 85 -
00:29 17,7 15,1 14,8 ZW 7,4 1022,4 85 -
00:34 17,7 15,1 13,0 Zuiden 7,9 1022,3 85 -
00:39 17,7 15,1 11,1 ZW 7,9 1022,2 85 -
00:44 17,6 15,1 9,3 Westen 3,9 1022,2 85 -
00:49 17,6 15,1 14,5 WZW 7,7 1022,2 85 -
00:54 17,6 15,1 16,7 ZO 5,8 1022,0 85 -
00:59 17,6 15,2 9,3 ZW 7,9 1022,2 86 -
01:04 17,5 14,9 11,1 ZZW 9,0 1022,1 85 -
01:09 17,5 15,1 9,7 ZW 8,8 1022,2 86 -
01:14 17,4 15,1 7,4 WZW 5,8 1022,1 86 -
01:19 17,4 15,0 16,7 ZZW 7,4 1022,1 86 -
01:24 17,4 15,0 11,1 ZW 5,5 1022,1 86 -
01:29 17,4 15,0 14,5 ZZW 9,3 1022,1 86 -
01:34 17,3 15,2 13,0 ZW 8,2 1022,0 87 -
01:39 17,3 15,2 9,7 ZW 7,7 1022,1 87 -
01:44 17,3 15,1 6,4 ZW 5,1 1021,9 87 -
01:49 17,3 15,1 14,8 ZW 9,8 1022,0 87 -
01:54 17,2 15,1 11,1 ZW 7,6 1022,0 87 -
01:59 17,2 15,1 7,4 ZW 5,8 1022,0 87 -
02:04 17,2 15,2 11,1 ZZO 7,4 1021,9 88 -
02:09 17,2 15,2 7,4 ZW 5,3 1021,9 88 -
02:14 17,1 15,1 18,5 ZZW 7,2 1021,8 88 -
02:19 17,1 15,1 11,1 ZW 5,1 1021,7 88 -
02:24 17,1 15,2 11,1 Zuiden 8,2 1021,7 89 -
02:29 17,1 15,2 11,1 Westen 5,3 1021,7 89 -
02:34 17,0 15,2 9,3 ZZW 5,0 1021,6 89 -
02:39 17,0 15,2 9,3 ZW 2,4 1021,6 89 -
02:44 16,9 15,1 3,7 ZW 3,2 1021,6 89 -
02:49 16,8 15,0 13,0 ZW 5,8 1021,5 89 -
02:54 16,8 14,9 5,6 ZW 3,4 1021,3 89 -
02:59 16,7 14,9 11,3 ZW 6,1 1021,4 89 -
03:04 16,7 15,0 13,0 ZW 6,0 1021,4 90 -
03:09 16,6 14,9 5,6 ZW 3,4 1021,3 90 -
03:14 16,6 14,9 9,3 ZW 3,9 1021,3 90 -
03:19 16,6 14,9 11,1 ZZW 5,8 1021,4 90 -
03:24 16,5 15,0 8,0 ZZW 5,0 1021,3 91 -
03:29 16,5 15,0 11,1 ZW 5,6 1021,3 91 -
03:34 16,5 15,0 11,1 ZZW 7,7 1021,2 91 -
03:39 16,5 15,0 11,1 ZZW 9,5 1021,1 91 -
03:44 16,5 15,0 7,4 ZW 3,9 1021,2 91 -
03:49 16,5 15,0 11,3 ZZW 7,2 1021,1 91 -
03:54 16,4 14,9 6,4 ZZW 4,8 1021,1 91 -
03:59 16,4 14,9 9,7 WZW 6,1 1021,0 91 -
04:04 16,4 15,1 9,7 ZW 7,4 1021,0 92 -
04:09 16,4 15,1 9,3 ZW 5,0 1021,0 92 -
04:14 16,4 15,1 9,7 ZW 6,0 1021,1 92 -
04:19 16,4 15,1 14,8 ZW 4,3 1021,0 92 -
04:24 16,4 15,1 13,0 ZW 5,1 1021,0 92 -
04:29 16,4 15,1 7,4 ZZW 5,6 1021,0 92 -
04:34 16,4 15,2 9,3 ZW 6,0 1021,0 92 -
04:39 16,4 15,2 12,9 ZW 6,8 1021,0 92 -
04:44 16,4 15,2 9,3 Zuiden 3,5 1020,9 92 -
04:49 16,4 15,2 9,3 ZZW 5,6 1020,9 92 -
04:54 16,4 15,2 13,0 ZZW 6,6 1020,9 92 -
04:59 16,4 15,2 9,3 ZZW 4,8 1020,9 92 -
05:04 16,4 15,2 9,3 ZW 8,7 1020,9 92 -
05:09 16,4 15,2 18,5 ZZW 8,0 1020,9 92 -
05:14 16,4 15,2 7,4 Zuiden 6,6 1020,9 92 -
05:19 16,4 15,2 5,6 ZZO 6,0 1020,9 92 -
05:24 16,4 15,2 8,0 ZZW 3,4 1020,9 92 -
05:29 16,4 15,2 8,0 ZW 6,4 1020,9 92 -
05:34 16,4 15,2 11,1 ZW 8,0 1020,8 92 -
05:39 16,4 15,2 18,5 ZW 7,1 1020,7 92 -
05:44 16,4 15,2 14,8 ZW 8,4 1020,8 92 -
05:49 16,4 15,2 11,1 ZZW 7,1 1020,8 92 -
05:54 16,5 15,2 18,5 WZW 11,7 1020,8 92 -
05:59 16,5 15,2 13,0 ZW 8,2 1020,8 92 -
06:04 16,6 15,3 9,3 ZW 8,7 1020,8 92 -
06:09 16,5 15,2 16,1 ZW 8,7 1020,7 92 -
06:14 16,5 15,2 11,1 ZW 8,5 1020,7 92 -
06:19 16,5 15,2 18,5 ZW 14,0 1020,8 92 -
06:24 16,4 15,1 14,8 WZW 14,5 1020,8 92 -
06:29 16,4 15,3 14,8 ZW 9,7 1020,8 93 -
06:34 16,4 15,3 18,5 ZZW 13,7 1020,8 93 -
06:39 16,3 15,2 17,7 ZZW 15,8 1020,8 93 -
06:44 16,3 15,2 20,4 WZW 10,1 1020,7 93 -
06:49 16,3 15,2 18,5 ZW 10,5 1020,7 93 -
06:54 16,3 15,2 16,7 ZZW 9,7 1020,6 93 -
06:59 16,3 15,2 18,5 ZW 9,3 1020,7 93 -
07:04 16,3 15,2 22,2 ZZW 16,9 1020,7 93 -
07:09 16,3 15,2 20,4 ZW 11,6 1020,7 93 -
07:14 16,3 15,2 14,8 WZW 9,0 1020,6 93 -
07:19 16,3 15,2 14,8 ZZW 12,6 1020,5 93 -
07:24 16,3 15,2 11,3 ZW 8,4 1020,6 93 -
07:29 16,3 15,2 18,5 ZW 11,3 1020,5 93 -
07:34 16,3 15,2 14,8 ZW 8,0 1020,5 93 -
07:39 16,4 15,3 12,9 Westen 6,3 1020,6 93 -
07:44 16,3 15,2 18,5 WZW 10,1 1020,5 93 -
07:49 16,3 15,2 16,7 ZW 8,4 1020,6 93 -
07:54 16,4 15,3 13,0 WZW 11,6 1020,5 93 -
07:59 16,4 15,3 19,3 ZW 9,8 1020,6 93 -
08:04 16,4 15,3 16,7 ZW 11,4 1020,6 93 -
08:09 16,4 15,3 25,9 ZW 14,0 1020,6 93 -
08:14 16,4 15,3 20,4 ZW 7,4 1020,6 93 -
08:19 16,5 15,4 16,7 ZW 12,4 1020,6 93 -
08:24 16,5 15,4 18,5 ZZW 8,2 1020,6 93 -
08:29 16,6 15,4 18,5 WZW 10,6 1020,7 93 -
08:34 16,6 15,4 14,5 ZZW 13,7 1020,6 93 -
08:39 16,6 15,4 25,9 WZW 12,2 1020,6 93 -
08:44 16,6 15,4 20,4 ZZW 15,4 1020,6 93 -
08:49 16,5 15,4 16,7 ZW 8,8 1020,6 93 -
08:54 16,6 15,4 31,5 ZZW 15,3 1020,7 93 -
08:59 16,6 15,5 14,8 ZW 15,8 1020,8 93 -
09:04 16,6 15,4 22,2 ZZW 11,7 1020,7 93 -
09:09 16,6 15,5 14,5 ZW 12,7 1020,7 93 -
09:14 16,7 15,6 13,0 WZW 7,2 1020,7 93 -
09:19 16,7 15,6 16,7 ZZW 11,1 1020,7 93 -
09:24 16,7 15,6 20,4 WZW 14,3 1020,7 93 -
09:29 16,7 15,6 13,0 ZW 11,4 1020,7 93 -
09:34 16,7 15,3 18,5 Westen 11,9 1020,8 92 -
09:39 16,7 15,4 18,5 ZW 12,1 1020,9 92 -
09:44 16,7 15,6 9,3 ZW 7,4 1020,8 93 -
09:49 16,7 15,4 18,5 ZW 15,4 1020,8 92 -
09:54 16,7 15,3 24,1 WZW 18,0 1020,7 92 -
09:59 16,7 15,3 22,2 WZW 9,8 1020,7 92 -
10:04 16,7 15,3 18,5 ZW 13,7 1020,6 92 -
10:09 16,7 15,3 14,8 WZW 13,0 1020,6 92 -
10:14 16,7 15,3 18,5 Zuiden 17,1 1020,5 92 -
10:19 16,6 15,3 16,7 WZW 8,8 1020,5 92 -
10:24 16,6 15,3 18,5 Westen 9,8 1020,5 92 -
10:29 16,6 15,3 14,8 WZW 11,6 1020,5 92 -
10:34 16,6 15,3 13,0 ZW 10,0 1020,4 92 -
10:39 16,6 15,3 22,2 ZW 15,4 1020,4 92 -
10:44 16,6 15,3 25,9 WZW 7,9 1020,3 92 -
10:49 16,6 15,3 20,4 ZW 10,1 1020,4 92 -
10:54 16,6 15,3 22,2 ZZO 12,4 1020,4 92 -
10:59 16,6 15,3 22,2 ZZW 13,8 1020,4 92 -
11:04 16,6 15,3 16,7 WZW 9,8 1020,4 92 -
11:09 16,7 15,4 24,1 WZW 13,0 1020,4 92 -
11:14 16,7 15,4 18,5 WZW 10,3 1020,4 92 -
11:19 16,8 15,3 20,9 ZW 17,4 1020,5 91 -
11:24 16,8 15,3 25,9 ZW 13,2 1020,6 91 -
11:29 16,8 15,3 22,2 ZW 10,0 1020,5 91 -
11:34 16,8 15,3 27,8 Zuiden 15,1 1020,5 91 -
11:39 16,8 15,3 27,4 ZW 16,6 1020,5 91 -
11:44 16,8 15,3 18,5 ZW 12,9 1020,6 91 -
11:49 16,9 15,4 20,4 ZW 16,4 1020,6 91 -
11:54 16,9 15,4 24,1 ZW 23,8 1020,7 91 -
11:59 16,9 15,4 22,2 ZZW 14,8 1020,7 91 -
12:04 16,9 15,3 31,5 ZW 17,1 1020,7 90 -
12:09 16,9 15,3 18,5 ZZW 17,2 1020,7 90 -
12:14 17,0 15,3 22,2 ZW 18,0 1020,6 90 -
12:19 17,0 15,3 18,5 ZZW 10,3 1020,5 90 -
12:24 17,1 15,4 18,5 ZW 9,3 1020,5 90 -
12:29 17,2 15,5 27,4 WZW 20,0 1020,5 90 -
12:34 17,2 15,3 25,9 ZW 18,0 1020,5 89 -
12:39 17,2 15,3 22,2 ZW 14,8 1020,4 89 -
12:44 17,2 15,4 27,8 ZW 14,3 1020,4 89 -
12:49 17,4 15,6 25,7 ZW 14,8 1020,4 89 -
12:54 17,5 15,5 22,5 Westen 14,8 1020,3 88 -
12:59 17,6 15,4 18,5 Westen 10,6 1020,3 87 -
13:04 17,7 15,6 22,2 WZW 19,5 1020,3 87 -
13:09 17,8 15,7 22,5 WZW 17,4 1020,2 87 -
13:14 17,9 15,6 27,8 ZW 15,4 1020,0 86 -
13:19 18,2 15,6 25,9 Zuiden 11,6 1019,9 85 -
13:24 18,4 15,8 22,2 ZW 12,6 1019,9 85 -
13:29 18,6 15,7 18,5 ZW 11,3 1019,9 83 -
13:34 18,6 15,7 29,6 ZW 17,7 1019,9 83 -
13:39 18,6 15,5 31,5 ZZW 16,4 1019,8 82 -
13:44 18,7 15,8 27,4 ZW 16,1 1019,7 83 -
13:49 18,9 15,7 22,2 ZZW 13,7 1019,6 82 -
13:54 18,9 15,6 22,2 ZW 20,9 1019,8 81 -
13:59 18,8 15,7 22,2 ZW 17,9 1019,8 82 -
14:04 18,8 15,7 31,5 ZZW 15,3 1019,6 82 -
14:09 18,7 15,6 24,1 WZW 11,9 1019,6 82 -
14:14 18,8 15,7 18,5 ZW 12,4 1019,6 82 -
14:19 19,0 15,8 22,2 Zuiden 16,7 1019,5 82 -
14:24 19,1 15,5 24,1 WZW 19,8 1019,5 80 -
14:29 18,9 15,6 27,8 ZW 17,5 1019,4 81 -
14:34 18,9 15,6 18,5 ZW 12,9 1019,4 81 -
14:39 19,2 15,6 27,8 ZW 24,1 1019,4 80 -
14:44 19,3 15,6 31,5 ZW 25,9 1019,4 79 -
14:49 19,3 15,3 31,5 WZW 15,0 1019,3 78 -
14:54 19,5 15,3 29,6 WZW 20,3 1019,4 77 -
14:59 19,6 15,3 37,0 ZW 21,4 1019,2 76 -

Download your copy of this data-set  here

Our weather-data as stored at Weather Underground. Script ontwikkeld door Jim McMurry. Aangepast voor de template door Leuven-Template.eu

U vindt ons ook hier:

Het Weer Aktueel

European Weather Network

Weather Underground

Benelux Weer Netwerk

Citizen Weather Observer Program (CWOP)

Apparatuur in gebruik:

Weerstation
Davis VP2

Weerprogramma
Weather Display

Weercomputer
My Computer

Webleverancier
WeservIT

Davis VP2

Weather Display

My Computer

WeservIT